NOAA 16 DEB, 42362

Orbit data source: Space-Track

NOAA 16 DEB, 42362 is space debris in SSO originally from a launch on Thu, 21 Sep 2000 UTC launched from the Air Force Western Test Range (AFWTR). Debris objects in space refer to the collection of defunct objects orbiting the Earth. Examples of debris include non-operational satellites, rocket bodies, and fragments generated from explosions, collisions, or faulty payload assembly.

Loading next visibility...
Identifier
42362, 2000-055RE
Orbit
SSO
Country
Flag of USUS
Related business
Manufacturer
Unknown
Mission
Spacecraft
Bus & Motor
Unknown
Mass
Unknown
Launch date (UTC)
2000-09-21 (25 years ago)
Launch vehicle
Unknown
Launch site
Air Force Western Test Range (AFWTR)
Object type
Payload
Rocket body
Debris
Shape & HBR
Unknown shape, 0.1 m
Radar Cross Section
Small (<0.1 m²)

Expand to show TLE details & history
Last TLE update: 2 days ago

TLE from 2 days ago
0 NOAA 16 DEB
1 42362U 00055RE  25338.75991521  .00019416  00000-0  10321-1 0  9996
2 42362  98.8606 298.3238 0099742   8.8165 351.4729 14.10946474500297
Epoch: 2025-12-04T18:14Z
TLE epoch observation values (Epoch: 2025-12-04T18:14:16.674Z)
Latitude
0.00001°
Longitude
-49.05742°
Altitude
787.676 km
Speed
7.497 km/s
True Right ascension
19h 53m 17s
True Declination
0° 00' 00"
Sunlit
Object was in daylight at epoch
Visualization orbit readout
Latitude
Unknown
Longitude
Unknown
Altitude
Unknown
Speed
Unknown
Apparent Right ascension
Unknown
Apparent Declination
Unknown
Sunlit
N/A
Visualization observer readout
Local Sidereal Time
02:11:16
Azimuth
Unknown
Elevation
Unknown
Doppler factor
Unknown
Orbital elements
Apogee altitude
925.44 km
Perigee altitude
781.184 km
Semi-major axis
7,231.449 km
Eccentricity
0.00997
Inclination
98.8606°
RAAN
298.3238°
Arg. of periapsis
8.8165°
True anomaly
351.30131°
Mean anomaly
351.4729°
Eccentric anomaly
351.38732°
Mean motion
3.52943 °/min
Orbital period
102 mins
BSTAR
0.010321
Loading maneuver chart data...
Computing Atmospheric mass density...

Documentation

Showing up to 5 results
|